Regional Weather Roundup
Issued by NWS Sterling, VA

Home | Current Version | Previous Version | Graphics & Text | Print | Product List | Glossary On
Versions: 1 2 3 4 5 6 7 8 9 10 11 12 13 14 15 16 17 18 19 20 21 22 23 24 25 26 27
000
ASUS41 KLWX 282011
RWRLWX

REGIONAL WEATHER ROUNDUP
NATIONAL WEATHER SERVICE BALTIMORE MD/WASHINGTON DC
400 PM EDT SUN MAY 28 2017

Note: "FAIR" indicates few or no clouds below 12,000 feet
with no significant weather and/or obstructions to visibility.
 TC=TEMPERATURE CELSIUS

 * =Non NWS site. Station does not report precipitation (e.g. rain,
    snow, etc.), thunder, or fog.

DCZ001-MDZ009-015-VAZ040>042-051-053>054-282100-
WASHINGTON METRO

CITY           SKY/WX    TMP DP  RH WIND       PRES   REMARKS
WASHINGTON NAT CLOUDY    68  65  90 E10       29.85F
DULLES         CLOUDY    66  63  90 E6        29.86S
ANDREWS AFB    CLOUDY    66  63  91 E9        29.84F
FT BELVOIR     CLOUDY    69  63  83 CALM      29.84F
QUANTICO       CLOUDY    69  67  93 NE6       29.85S
COLLEGE PARK*  CLOUDY    64  63  95 CALM      29.85F
LEESBURG*      CLOUDY    70  64  83 SE7       29.87F
MANASSAS*      CLOUDY    68  65  90 SE6       29.85F
GAITHERSBURG*  CLOUDY    67  64  90 VRB5      29.87F

$$

MDZ006>007-011-014-282100-
BALTIMORE METRO

CITY           SKY/WX    TMP DP  RH WIND       PRES   REMARKS
BWI AIRPORT    LGT RAIN  66  66 100 CALM      29.86S FOG
MD SCIENCE CTR   N/A     69  66  90 MISG      29.86S
MARTIN STATE   RAIN      70  68  94 SE8       29.88S
ANNAPOLIS      LGT RAIN  68  66  93 SE9       29.86F FOG
FORT MEADE*    CLOUDY    64  63  94 CALM      29.88F

$$

MDZ012-015-019>023-282100-
MARYLAND EASTERN SHORE

CITY           SKY/WX    TMP DP  RH WIND       PRES   REMARKS
OCEAN CITY     LGT RAIN  64  62  93 E9        29.85F
SALISBURY      LGT RAIN  67  66  97 E7        29.84F
BAY BRIDGE AP* RAIN      66  64  94 S3        29.87S FOG
CAMBRIDGE*     PTSUNNY   72  66  83 NE6       29.85S
EASTON*        LGT RAIN  68  64  88 E6        29.90F

$$

MDZ017>025-282100-
SOUTHERN MARYLAND

CITY           SKY/WX    TMP DP  RH WIND       PRES   REMARKS
PATUXENT RIVER LGT RAIN  68  68 100 E5        29.83F FOG
ST INIGOES     LGT RAIN  68  67  96 NE6       29.82F
LEONARDTOWN*   CLOUDY    68  64  88 E8        29.85F

$$

MDZ003>005-282100-
NORTH CENTRAL MARYLAND

CITY           SKY/WX    TMP DP  RH WIND       PRES   REMARKS
FREDERICK*     CLOUDY    73  66  78 VRB3      29.88F
HAGERSTOWN APT LGT RAIN  67  63  87 S17G23    29.84F FOG
WESTMINSTER*   DRIZZLE   70  63  78 SE6       29.87S

$$

MDZ501>502-282100-
WESTERN MARYLAND

CITY           SKY/WX    TMP DP  RH WIND       PRES   REMARKS
OAKLAND*         N/A     61  61 100 SE10      29.86F FOG
CUMBERLAND*    CLOUDY    68  64  88 CALM      29.86F

$$

VAZ025>031-282100-
SHENANDOAH VALLEY

CITY           SKY/WX    TMP DP  RH WIND       PRES   REMARKS
WINCHESTER*    CLOUDY    68  61  77 E7        29.84F
FRONT ROYAL*   CLOUDY    70  61  73 CALM      29.82F
LURAY*         CLOUDY    66  64  94 N5        29.83F
NEW MARKET*    CLOUDY    70  66  87 E6        29.81F
STAUNTON*      LGT RAIN  68  64  85 CALM      29.85F
WAYNESBORO*    CLOUDY    70  65  85 E6        29.85S

$$

WVZ021-048>050-054>055-282100-
EASTERN WEST VIRGINIA PANHANDLE

CITY           SKY/WX    TMP DP  RH WIND       PRES   REMARKS
MARTINSBURG    CLOUDY    67  64  90 VRB5      29.84S
PETERSBURG*    CLOUDY    71  68  92 CALM      29.82F

$$

VAZ036>039-050-282100-
CENTRAL FOOTHILLS

CITY           SKY/WX    TMP DP  RH WIND       PRES   REMARKS
CHARLOTTESVILL CLOUDY    70  66  87 N5        29.83F
CULPEPER*      CLOUDY    70  66  86 E5        29.85F
ORANGE*        CLOUDY    68  63  83 NW6       29.84S
GORDONSVILLE*  CLOUDY    69  66  90 CALM      29.83S
WARRENTON*     CLOUDY    69  62  78 E5        29.85S

$$

VAZ055>057-282100-
NORTH AND CENTRAL PIEDMONT

CITY           SKY/WX    TMP DP  RH WIND       PRES   REMARKS
FREDERICKSBRG* CLOUDY    69  69 100 N5        29.82F
STAFFORD*      CLOUDY    67  66  97 NE5       29.88S

$$

NCZ024-NYZ072-PAZ021-071-VAZ022-071-282100-
OTHER REGIONAL OBSERVATIONS

CITY           SKY/WX    TMP DP  RH WIND       PRES   REMARKS
NEW YORK CITY  MOSUNNY   68  54  60 MISG      29.95F
PHILADELPHIA   CLOUDY    74  58  57 SE9       29.87F
PITTSBURGH     PTSUNNY   75  65  70 SW7       29.76F
ROANOKE        CLOUDY    75  68  78 SE14      29.84R
RICHMOND       PTSUNNY   77  69  76 NE3       29.80S
RALEIGH        PTSUNNY   85  66  53 SW14      29.81F

$$

ANZ530>537-282100-
MARINE OBSERVATIONS

STATION/POSITION TIME  TEMP    WIND        PRES
                       AIR SEA DIR/SP/G
                 (UTC) (F)     (DEG/KT/KT) (MB)
THOMAS PT LIGHT  2000   65 66   70/  7/  8   N/A
BALT KEY BRIDGE  1942   67      CALM  /  2 1011.3F
COVE POINT       1942   67     190/  4/  6 1011.3F
LEWISETTA        1942   68 71  110/  6/  7 1010.2F
SOLOMONS ISLAND  1942   68 68  130/  6/  7   N/A
PINEY POINT      1948          110/ 10/ 10   N/A

$$





USA.gov is the U.S. government's official web portal to all federal, state and local government web resources and services.